EW0596 Weather Reports


time (UTC)temp
C
wind
direction
speed
KPH
gust
KPH
rain 1hr
cm
rain 24hr
cm
rain mn
cm
humidity
%
barometer
mb
20260505170031 17 174 0.0 8.0 0.00 0.00 0.00 39 1014.0
20260505164517 16 66 1.6 12.9 0.00 0.00 0.00 38 1014.0
20260505163015 16 94 3.2 8.0 0.00 0.00 0.00 38 1014.1
20260505161514 16 149 1.6 12.9 0.00 0.00 0.00 40 1014.1
20260505153004 14 62 0.0 11.3 0.00 0.00 0.00 48 1014.1
20260505151504 13 57 0.0 6.4 0.00 0.00 0.00 50 1014.1
20260505124513 7 58 0.0 1.6 0.00 0.00 0.00 66 1012.8
20260505123005 7 61 0.0 3.2 0.00 0.00 0.00 67 1012.7
20260505121551 8 69 0.0 3.2 0.00 0.00 0.00 66 1012.5
20260505120100 8 55 0.0 6.4 0.00 0.00 0.00 65 1012.4
20260505114545 9 37 1.6 4.8 0.00 0.00 0.00 64 1012.4
20260505113050 8 32 0.0 3.2 0.00 0.00 0.00 65 1012.2
20260505111542 9 53 0.0 4.8 0.00 0.00 0.00 64 1012.2
20260505101510 12 27 0.0 4.8 0.00 0.00 0.00 54 1012.0
20260505100016 11 56 0.0 8.0 0.00 0.00 0.00 56 1012.0
20260505094552 11 63 0.0 4.8 0.00 0.00 0.00 57 1011.9
20260505093051 12 38 0.0 4.8 0.00 0.00 0.00 55 1011.7
20260505091548 12 66 1.6 11.3 0.00 0.00 0.00 57 1011.6
20260505090046 11 59 1.6 4.8 0.00 0.00 0.00 59 1011.5
20260505084544 12 50 0.0 4.8 0.00 0.00 0.00 59 1011.4
20260505083040 12 62 0.0 6.4 0.00 0.00 0.00 58 1011.2
20260505081544 12 61 0.0 3.2 0.00 0.00 0.00 58 1011.1
20260505080038 12 69 1.6 4.8 0.00 0.00 0.00 58 1011.0
20260505074531 12 63 0.0 4.8 0.00 0.00 0.00 59 1010.9
20260505073038 12 61 1.6 4.8 0.00 0.00 0.00 59 1010.7
20260505071543 12 55 0.0 4.8 0.00 0.00 0.00 59 1010.5
20260505070021 12 54 1.6 4.8 0.00 0.00 0.00 59 1010.3
20260505064523 13 57 0.0 4.8 0.00 0.00 0.00 56 1010.3
20260505063015 13 53 1.6 8.0 0.00 0.00 0.00 54 1010.2
20260505061523 13 67 0.0 3.2 0.00 0.00 0.00 55 1010.1
20260505060016 13 66 0.0 4.8 0.00 0.00 0.00 54 1010.0
20260505054512 13 61 0.0 3.2 0.00 0.00 0.00 57 1009.9
20260505053007 13 55 0.0 3.2 0.00 0.00 0.00 58 1009.8
20260505051552 13 58 1.6 3.2 0.00 0.00 0.00 58 1009.8
20260505041534 13 54 0.0 4.8 0.00 0.00 0.00 57 1009.0
20260505040040 14 72 1.6 3.2 0.00 0.00 0.00 57 1008.8
20260505034525 15 74 0.0 3.2 0.00 0.00 0.00 54 1008.5
20260505033025 14 67 0.0 1.6 0.00 0.00 0.00 57 1008.3
20260505031505 15 67 0.0 1.6 0.00 0.00 0.00 55 1008.2
20260505030105 17 67 0.0 3.2 0.00 0.00 0.00 49 1008.1
20260505024556 18 69 0.0 4.8 0.00 0.00 0.00 43 1008.1
20260505023057 20 50 0.0 11.3 0.00 0.00 0.00 39 1008.1
20260505021547 21 123 0.0 6.4 0.00 0.00 0.00 37 1008.1
20260505020043 21 61 0.0 8.0 0.00 0.00 0.00 35 1008.0
20260505014538 22 43 0.0 4.8 0.00 0.00 0.00 34 1007.9
20260505013033 22 55 1.6 8.0 0.00 0.00 0.00 32 1007.8
20260505011517 22 302 1.6 6.4 0.00 0.00 0.00 34 1007.9
20260505010013 22 146 0.0 1.6 0.00 0.00 0.00 36 1007.9
20260505004509 23 89 0.0 8.0 0.00 0.00 0.00 31 1007.9
20260505003005 23 148 0.0 6.4 0.00 0.00 0.00 32 1007.9
20260505001600 23 130 3.2 8.0 0.00 0.00 0.00 31 1007.9
20260505000108 24 130 0.0 11.3 0.00 0.00 0.00 35 1007.9
20260504234550 23 85 0.0 9.7 0.00 0.00 0.00 36 1008.0
20260504233049 23 163 1.6 11.3 0.00 0.00 0.00 33 1008.0
20260504231543 23 148 1.6 8.0 0.00 0.00 0.00 34 1008.1
20260504230021 23 149 1.6 6.4 0.00 0.00 0.00 35 1008.3
20260504224516 23 99 1.6 8.0 0.00 0.00 0.00 31 1008.4
20260504223101 24 101 0.0 8.0 0.00 0.00 0.00 31 1008.4
20260504221556 23 148 3.2 14.5 0.00 0.00 0.00 33 1008.4
20260504220110 23 142 1.6 11.3 0.00 0.00 0.00 33 1008.5
20260504214553 23 243 1.6 8.0 0.00 0.00 0.00 34 1008.6
20260504213050 23 142 3.2 11.3 0.00 0.00 0.00 33 1008.7
20260504211539 23 75 1.6 6.4 0.00 0.00 0.00 37 1008.8
20260504210034 23 136 0.0 8.0 0.00 0.00 0.00 34 1008.8
20260504204529 22 35 1.6 11.3 0.00 0.00 0.00 34 1009.1
20260504203014 22 123 0.0 14.5 0.00 0.00 0.00 37 1009.1
20260504201510 22 144 1.6 11.3 0.00 0.00 0.00 37 1009.3
20260504200004 22 134 3.2 12.9 0.00 0.00 0.00 35 1009.3
20260504194601 22 127 1.6 11.3 0.00 0.00 0.00 41 1009.3
20260504193059 21 117 3.2 9.7 0.00 0.00 0.00 39 1009.5
20260504191557 21 70 1.6 9.7 0.00 0.00 0.00 36 1009.4
20260504190057 21 123 1.6 14.5 0.00 0.00 0.00 38 1009.4
20260504184554 21 119 1.6 9.7 0.00 0.00 0.00 41 1009.5
20260504183037 21 192 0.0 6.4 0.00 0.00 0.00 41 1009.5
20260504181523 21 121 0.0 12.9 0.00 0.00 0.00 40 1009.6
20260504180001 21 162 0.0 12.9 0.00 0.00 0.00 40 1009.7
20260504174606 20 142 1.6 9.7 0.00 0.00 0.00 38 1009.7
20260504173057 20 136 3.2 14.5 0.00 0.00 0.00 42 1009.7
20260504171548 19 128 0.0 6.4 0.00 0.00 0.00 45 1009.7